Pasco, WA
on Monday, November 5, 2012

Monday
Previous Day Next Day
Daily Summary
 ActualAverageRecord
Temperature
Mean Temperature °F 45°F  
Max Temperature 68°F 56°F 68°F (2012)
Min Temperature 44°F 34°F 11°F (2003)
Degree Days
Heating Degree Days 9 20  
Month to date heating degree days 55 97  
Since 1 July heating degree days 499 615  
Cooling Degree Days 0 0  
Month to date cooling degree days 0 0  
Year to date cooling degree days 788 710  
Growing Degree Days6 (Base °F )  
Moisture
Dew Point 51°F   
Average Humidity 79    
Maximum Humidity 100    
Minimum Humidity 58    
Precipitation
Precipitation 0.00 in 0.04 in 0.56 in (1991)
Month to date precipitation 0.08 0.15  
Year to date precipitation 7.54 6.68  
Snow
Snow 0.00 in in in ()
Snow Depth 0.00 in   
Wind
Wind Speed 7 mph   
Max Wind Speed 18 mph   
Max Gust Speed 23 mph   
Visibility 10 miles   
Events     

Key: T is trace of precipitation, MM is missing value
Source: NWS Daily Summary
Time(PST)TemperatureDew PointHumidity Pressure Visibility Wind DirectionWind SpeedGust SpeedPrecipitationEvents Conditions
12:53 AM 59.0°F 52.0°F 78% 30.25 in 10.0 miles South 3.5 mph - N/A   Clear
1:53 AM 62.1°F 53.1°F 72% 30.26 in 10.0 miles WSW 9.2 mph - N/A   Clear
2:53 AM 61.0°F 53.1°F 75% 30.22 in 10.0 miles SSW 15.0 mph - N/A   Clear
3:53 AM 60.1°F 52.0°F 75% 30.22 in 10.0 miles Variable 3.5 mph - N/A   Clear
4:53 AM 61.0°F 53.1°F 75% 30.21 in 10.0 miles SSW 12.7 mph - N/A   Clear
5:53 AM 61.0°F 53.1°F 75% 30.21 in 10.0 miles SSW 15.0 mph - N/A   Clear
6:53 AM 61.0°F 53.1°F 75% 30.22 in 10.0 miles SW 11.5 mph - N/A   Clear
7:53 AM 63.0°F 54.0°F 72% 30.24 in 10.0 miles WNW 5.8 mph - N/A   Clear
8:53 AM 64.9°F 55.0°F 70% 30.25 in 10.0 miles WSW 3.5 mph - N/A   Clear
9:53 AM 66.9°F 55.9°F 68% 30.26 in 10.0 miles WSW 4.6 mph - N/A   Clear
10:53 AM 68.0°F 55.9°F 65% 30.26 in 10.0 miles WNW 9.2 mph - N/A   Clear
11:53 AM 66.9°F 55.0°F 66% 30.26 in 10.0 miles NW 8.1 mph - N/A   Clear
12:53 PM 66.9°F 53.1°F 61% 30.25 in 10.0 miles NW 5.8 mph - N/A   Clear
1:53 PM 68.0°F 53.1°F 59% 30.23 in 10.0 miles NNW 9.2 mph - N/A   Clear
2:53 PM 66.9°F 52.0°F 59% 30.23 in 10.0 miles North 6.9 mph - N/A   Clear
3:53 PM 64.0°F 50.0°F 60% 30.23 in 10.0 miles NNE 3.5 mph - N/A   Clear
4:53 PM 61.0°F 48.9°F 64% 30.22 in 10.0 miles Calm Calm - N/A   Clear
5:53 PM 55.0°F 50.0°F 83% 30.22 in 10.0 miles Calm Calm - N/A   Clear
6:53 PM 51.1°F 48.0°F 89% 30.21 in 10.0 miles East 3.5 mph - N/A   Clear
7:53 PM 48.9°F 46.9°F 93% 30.20 in 10.0 miles NNW 4.6 mph - N/A   Clear
8:53 PM 46.0°F 45.0°F 96% 30.20 in 10.0 miles NNW 3.5 mph - N/A   Clear
9:53 PM 46.0°F 45.0°F 96% 30.19 in 10.0 miles NW 5.8 mph - N/A   Clear
10:53 PM 45.0°F 44.1°F 97% 30.18 in 10.0 miles NNW 4.6 mph - N/A   Clear
11:53 PM 45.0°F 43.0°F 93% 30.17 in 10.0 miles NNW 4.6 mph - N/A   Clear
Moon Phase
Nov. 05 Nov. 06 Nov. 13 Nov. 20 Nov. 28
Sunrise:06:44 AM (PST) Moon Rise:10:18 PM (PST)11/5
Sunset:04:35 PM (PST) Moon Set:12:06 PM (PST)11/5

Copyright © 2014 The Weather Underground, Inc.